TimeAKDT,TemperatureF,Dew PointF,Humidity,Sea Level PressureIn,VisibilityMPH,Wind Direction,Wind SpeedMPH,Gust SpeedMPH,PrecipitationIn,Events,Conditions,WindDirDegrees,DateUTC
12:53 AM,57.9,33.1,39,29.91,10.0,SSW,12.7,-,N/A,,Clear,210,2013-05-31 08:53:00
1:53 AM,57.0,32.0,39,29.92,10.0,SW,15.0,-,N/A,,Clear,230,2013-05-31 09:53:00
2:53 AM,57.0,32.0,39,29.93,10.0,SSW,10.4,-,N/A,,Clear,210,2013-05-31 10:53:00
3:53 AM,55.0,34.0,45,29.95,10.0,SW,10.4,-,N/A,,Scattered Clouds,230,2013-05-31 11:53:00
4:53 AM,55.9,33.1,42,29.95,10.0,SW,6.9,-,N/A,,Partly Cloudy,230,2013-05-31 12:53:00
5:53 AM,55.9,33.1,42,29.96,10.0,SSW,9.2,-,N/A,,Mostly Cloudy,210,2013-05-31 13:53:00
6:53 AM,55.9,35.1,45,29.97,10.0,SE,3.5,-,N/A,,Mostly Cloudy,130,2013-05-31 14:53:00
7:53 AM,59.0,37.9,46,29.98,10.0,Calm,Calm,-,N/A,,Mostly Cloudy,0,2013-05-31 15:53:00
8:53 AM,60.1,37.0,42,29.99,10.0,Calm,Calm,-,N/A,,Mostly Cloudy,0,2013-05-31 16:53:00
9:53 AM,63.0,39.9,43,29.99,10.0,ESE,4.6,-,N/A,,Mostly Cloudy,120,2013-05-31 17:53:00
10:53 AM,71.1,35.1,27,29.99,10.0,Calm,Calm,-,N/A,,Mostly Cloudy,0,2013-05-31 18:53:00
11:53 AM,72.0,36.0,27,29.98,10.0,Variable,3.5,-,N/A,,Mostly Cloudy,0,2013-05-31 19:53:00
12:53 PM,72.0,36.0,27,29.99,10.0,NNW,9.2,-,N/A,,Mostly Cloudy,340,2013-05-31 20:53:00
1:53 PM,75.0,37.0,25,29.97,10.0,WNW,11.5,20.7,N/A,,Mostly Cloudy,300,2013-05-31 21:53:00
2:53 PM,73.9,37.0,26,29.96,10.0,NW,5.8,-,N/A,,Mostly Cloudy,320,2013-05-31 22:53:00
3:53 PM,75.0,37.0,25,29.96,10.0,West,15.0,19.6,N/A,,Mostly Cloudy,280,2013-05-31 23:53:00
4:53 PM,77.0,36.0,23,29.96,10.0,NNW,10.4,-,N/A,,Mostly Cloudy,340,2013-06-01 00:53:00
5:53 PM,75.0,34.0,22,29.96,10.0,NW,9.2,-,N/A,,Mostly Cloudy,310,2013-06-01 01:53:00
6:53 PM,73.9,37.0,26,29.96,10.0,WNW,15.0,-,N/A,,Mostly Cloudy,300,2013-06-01 02:53:00
7:53 PM,73.0,37.9,28,29.97,10.0,West,16.1,24.2,N/A,,Mostly Cloudy,260,2013-06-01 03:53:00
8:53 PM,70.0,39.9,33,29.98,10.0,WSW,10.4,-,N/A,,Mostly Cloudy,250,2013-06-01 04:53:00
9:53 PM,66.9,39.9,37,29.98,10.0,WSW,5.8,-,N/A,,Clear,240,2013-06-01 05:53:00
10:53 PM,66.0,39.9,38,29.98,10.0,SSW,5.8,-,N/A,,Clear,210,2013-06-01 06:53:00
11:53 PM,62.1,39.0,43,30.00,10.0,SSW,5.8,-,N/A,,Partly Cloudy,200,2013-06-01 07:53:00